owner,sensor,date,latitude,longitude,air_temperature,qcFlag 
DISL,ioos:station:DISL:DISL:1,2009-02-01T00:00:00Z,30.2513,-88.0778,13.38,1111122 
DISL,ioos:station:DISL:DISL:1,2009-02-01T00:30:00Z,30.2513,-88.0778,13.31,1111122 
DISL,ioos:station:DISL:DISL:1,2009-02-01T01:00:00Z,30.2513,-88.0778,13.43,1111122 
DISL,ioos:station:DISL:DISL:1,2009-02-01T01:30:00Z,30.2513,-88.0778,13.58,1111122 
DISL,ioos:station:DISL:DISL:1,2009-02-01T02:00:00Z,30.2513,-88.0778,13.54,1111122 
DISL,ioos:station:DISL:DISL:1,2009-02-01T02:30:00Z,30.2513,-88.0778,13.82,1111122 
DISL,ioos:station:DISL:DISL:1,2009-02-01T03:00:00Z,30.2513,-88.0778,13.66,1111122 
DISL,ioos:station:DISL:DISL:1,2009-02-01T03:30:00Z,30.2513,-88.0778,13.5,1111122 
DISL,ioos:station:DISL:DISL:1,2009-02-01T04:00:00Z,30.2513,-88.0778,13.68,1111122 
DISL,ioos:station:DISL:DISL:1,2009-02-01T04:30:00Z,30.2513,-88.0778,13.65,1111122 
DISL,ioos:station:DISL:DISL:1,2009-02-01T05:00:00Z,30.2513,-88.0778,13.81,1111122 
DISL,ioos:station:DISL:DISL:1,2009-02-01T05:30:00Z,30.2513,-88.0778,13.8,1111122 
DISL,ioos:station:DISL:DISL:1,2009-02-01T06:00:00Z,30.2513,-88.0778,13.78,1111122 
DISL,ioos:station:DISL:DISL:1,2009-02-01T06:30:00Z,30.2513,-88.0778,13.91,1111122 
DISL,ioos:station:DISL:DISL:1,2009-02-01T07:00:00Z,30.2513,-88.0778,13.96,1111122 
DISL,ioos:station:DISL:DISL:1,2009-02-01T07:30:00Z,30.2513,-88.0778,13.94,1111122 
DISL,ioos:station:DISL:DISL:1,2009-02-01T08:00:00Z,30.2513,-88.0778,13.79,1111122 
DISL,ioos:station:DISL:DISL:1,2009-02-01T08:30:00Z,30.2513,-88.0778,13.8,1111122 
DISL,ioos:station:DISL:DISL:1,2009-02-01T09:00:00Z,30.2513,-88.0778,14.02,1111122 
DISL,ioos:station:DISL:DISL:1,2009-02-01T09:30:00Z,30.2513,-88.0778,13.88,1111122 
DISL,ioos:station:DISL:DISL:1,2009-02-01T10:00:00Z,30.2513,-88.0778,13.69,1111122 
DISL,ioos:station:DISL:DISL:1,2009-02-01T10:30:00Z,30.2513,-88.0778,13.67,1111122 
DISL,ioos:station:DISL:DISL:1,2009-02-01T11:00:00Z,30.2513,-88.0778,13.3,1111122 
DISL,ioos:station:DISL:DISL:1,2009-02-01T11:30:00Z,30.2513,-88.0778,13.25,1111122 
DISL,ioos:station:DISL:DISL:1,2009-02-01T12:00:00Z,30.2513,-88.0778,12.73,1111122 
DISL,ioos:station:DISL:DISL:1,2009-02-01T12:30:00Z,30.2513,-88.0778,11.8,1111122 
DISL,ioos:station:DISL:DISL:1,2009-02-01T13:00:00Z,30.2513,-88.0778,12.65,1111122 
DISL,ioos:station:DISL:DISL:1,2009-02-01T13:30:00Z,30.2513,-88.0778,12.31,1111122 
DISL,ioos:station:DISL:DISL:1,2009-02-01T14:00:00Z,30.2513,-88.0778,12.72,1111122 
DISL,ioos:station:DISL:DISL:1,2009-02-01T14:30:00Z,30.2513,-88.0778,13.11,1111122 
DISL,ioos:station:DISL:DISL:1,2009-02-01T15:00:00Z,30.2513,-88.0778,13.43,1111122 
DISL,ioos:station:DISL:DISL:1,2009-02-01T15:30:00Z,30.2513,-88.0778,13.85,1111122 
DISL,ioos:station:DISL:DISL:1,2009-02-01T16:00:00Z,30.2513,-88.0778,14.47,1111122 
DISL,ioos:station:DISL:DISL:1,2009-02-01T16:30:00Z,30.2513,-88.0778,15.59,1111122 
DISL,ioos:station:DISL:DISL:1,2009-02-01T17:00:00Z,30.2513,-88.0778,15.73,1111122 
DISL,ioos:station:DISL:DISL:1,2009-02-01T17:30:00Z,30.2513,-88.0778,15.92,1111122 
DISL,ioos:station:DISL:DISL:1,2009-02-01T18:00:00Z,30.2513,-88.0778,16.24,1111122 
DISL,ioos:station:DISL:DISL:1,2009-02-01T18:30:00Z,30.2513,-88.0778,15.93,1111122 
DISL,ioos:station:DISL:DISL:1,2009-02-01T19:00:00Z,30.2513,-88.0778,16.5,1111122 
DISL,ioos:station:DISL:DISL:1,2009-02-01T19:30:00Z,30.2513,-88.0778,16.05,1111122 
DISL,ioos:station:DISL:DISL:1,2009-02-01T20:00:00Z,30.2513,-88.0778,16.77,1111122 
DISL,ioos:station:DISL:DISL:1,2009-02-01T20:30:00Z,30.2513,-88.0778,16.74,1111122 
DISL,ioos:station:DISL:DISL:1,2009-02-01T21:00:00Z,30.2513,-88.0778,17.04,1111122 
DISL,ioos:station:DISL:DISL:1,2009-02-01T21:30:00Z,30.2513,-88.0778,16.56,1111122 
DISL,ioos:station:DISL:DISL:1,2009-02-01T22:00:00Z,30.2513,-88.0778,16.72,1111122 
DISL,ioos:station:DISL:DISL:1,2009-02-01T22:30:00Z,30.2513,-88.0778,16.46,1111122 
DISL,ioos:station:DISL:DISL:1,2009-02-01T23:00:00Z,30.2513,-88.0778,16.6,1111122 
DISL,ioos:station:DISL:DISL:1,2009-02-01T23:30:00Z,30.2513,-88.0778,16.32,1111122 
DISL,ioos:station:DISL:DISL:1,2009-02-02T00:00:00Z,30.2513,-88.0778,16.33,1111122 
DISL,ioos:station:DISL:DISL:1,2009-02-02T00:30:00Z,30.2513,-88.0778,16.24,1111122 
DISL,ioos:station:DISL:DISL:1,2009-02-02T01:00:00Z,30.2513,-88.0778,16.13,1111122 
DISL,ioos:station:DISL:DISL:1,2009-02-02T01:30:00Z,30.2513,-88.0778,16.03,1111122 
DISL,ioos:station:DISL:DISL:1,2009-02-02T02:00:00Z,30.2513,-88.0778,15.78,1111122 
DISL,ioos:station:DISL:DISL:1,2009-02-02T02:30:00Z,30.2513,-88.0778,16.11,1111122 
DISL,ioos:station:DISL:DISL:1,2009-02-02T03:00:00Z,30.2513,-88.0778,16.14,1111122 
DISL,ioos:station:DISL:DISL:1,2009-02-02T03:30:00Z,30.2513,-88.0778,16.26,1111122 
DISL,ioos:station:DISL:DISL:1,2009-02-02T04:00:00Z,30.2513,-88.0778,16.27,1111122 
DISL,ioos:station:DISL:DISL:1,2009-02-02T04:30:00Z,30.2513,-88.0778,16.18,1111122 
DISL,ioos:station:DISL:DISL:1,2009-02-02T05:00:00Z,30.2513,-88.0778,16.14,1111122 
DISL,ioos:station:DISL:DISL:1,2009-02-02T05:30:00Z,30.2513,-88.0778,15.85,1111122 
DISL,ioos:station:DISL:DISL:1,2009-02-02T06:00:00Z,30.2513,-88.0778,15.51,1111122 
DISL,ioos:station:DISL:DISL:1,2009-02-02T06:30:00Z,30.2513,-88.0778,15.7,1111122 
DISL,ioos:station:DISL:DISL:1,2009-02-02T07:00:00Z,30.2513,-88.0778,15.7,1111122 
DISL,ioos:station:DISL:DISL:1,2009-02-02T07:30:00Z,30.2513,-88.0778,15.62,1111122 
DISL,ioos:station:DISL:DISL:1,2009-02-02T08:00:00Z,30.2513,-88.0778,15.63,1111122 
DISL,ioos:station:DISL:DISL:1,2009-02-02T08:30:00Z,30.2513,-88.0778,15.53,1111122 
DISL,ioos:station:DISL:DISL:1,2009-02-02T09:00:00Z,30.2513,-88.0778,15.53,1111122 
DISL,ioos:station:DISL:DISL:1,2009-02-02T09:30:00Z,30.2513,-88.0778,15.51,1111122 
DISL,ioos:station:DISL:DISL:1,2009-02-02T10:00:00Z,30.2513,-88.0778,15.59,1111122 
DISL,ioos:station:DISL:DISL:1,2009-02-02T10:30:00Z,30.2513,-88.0778,15.59,1111122 
DISL,ioos:station:DISL:DISL:1,2009-02-02T11:00:00Z,30.2513,-88.0778,15.83,1111122 
DISL,ioos:station:DISL:DISL:1,2009-02-02T11:30:00Z,30.2513,-88.0778,15.7,1111122 
DISL,ioos:station:DISL:DISL:1,2009-02-02T12:00:00Z,30.2513,-88.0778,15.57,1111122 
DISL,ioos:station:DISL:DISL:1,2009-02-02T12:30:00Z,30.2513,-88.0778,15.81,1111122 
DISL,ioos:station:DISL:DISL:1,2009-02-02T13:00:00Z,30.2513,-88.0778,15.85,1111122 
DISL,ioos:station:DISL:DISL:1,2009-02-02T13:30:00Z,30.2513,-88.0778,16.11,1111122 
DISL,ioos:station:DISL:DISL:1,2009-02-02T14:00:00Z,30.2513,-88.0778,16.15,1111122 
DISL,ioos:station:DISL:DISL:1,2009-02-02T14:30:00Z,30.2513,-88.0778,16.23,1111122 
DISL,ioos:station:DISL:DISL:1,2009-02-02T15:00:00Z,30.2513,-88.0778,16.52,1111122 
DISL,ioos:station:DISL:DISL:1,2009-02-02T15:30:00Z,30.2513,-88.0778,16.63,1111122 
DISL,ioos:station:DISL:DISL:1,2009-02-02T16:00:00Z,30.2513,-88.0778,16.91,1111122 
DISL,ioos:station:DISL:DISL:1,2009-02-02T16:30:00Z,30.2513,-88.0778,17.68,1111122 
DISL,ioos:station:DISL:DISL:1,2009-02-02T17:00:00Z,30.2513,-88.0778,17.02,1111122 
DISL,ioos:station:DISL:DISL:1,2009-02-02T17:30:00Z,30.2513,-88.0778,13.65,1111122 
DISL,ioos:station:DISL:DISL:1,2009-02-02T18:00:00Z,30.2513,-88.0778,13.81,1111122 
DISL,ioos:station:DISL:DISL:1,2009-02-02T18:30:00Z,30.2513,-88.0778,14.23,1111122 
DISL,ioos:station:DISL:DISL:1,2009-02-02T19:00:00Z,30.2513,-88.0778,14.75,1111122 
DISL,ioos:station:DISL:DISL:1,2009-02-02T19:30:00Z,30.2513,-88.0778,14.62,1111122 
DISL,ioos:station:DISL:DISL:1,2009-02-02T20:00:00Z,30.2513,-88.0778,14.33,1111122 
DISL,ioos:station:DISL:DISL:1,2009-02-02T20:30:00Z,30.2513,-88.0778,14.16,1111122 
DISL,ioos:station:DISL:DISL:1,2009-02-02T21:00:00Z,30.2513,-88.0778,13.88,1111122 
DISL,ioos:station:DISL:DISL:1,2009-02-02T21:30:00Z,30.2513,-88.0778,13.67,1111122 
DISL,ioos:station:DISL:DISL:1,2009-02-02T22:00:00Z,30.2513,-88.0778,13.11,1111122 
DISL,ioos:station:DISL:DISL:1,2009-02-02T22:30:00Z,30.2513,-88.0778,12.65,1111122 
DISL,ioos:station:DISL:DISL:1,2009-02-02T23:00:00Z,30.2513,-88.0778,11.46,1111122 
DISL,ioos:station:DISL:DISL:1,2009-02-02T23:30:00Z,30.2513,-88.0778,10.9,1111122 
DISL,ioos:station:DISL:DISL:1,2009-02-03T00:00:00Z,30.2513,-88.0778,10.88,1111122 
DISL,ioos:station:DISL:DISL:1,2009-02-03T00:30:00Z,30.2513,-88.0778,10.9,1111122 
DISL,ioos:station:DISL:DISL:1,2009-02-03T01:00:00Z,30.2513,-88.0778,10.72,1111122 
DISL,ioos:station:DISL:DISL:1,2009-02-03T01:30:00Z,30.2513,-88.0778,10.59,1111122 
DISL,ioos:station:DISL:DISL:1,2009-02-03T02:00:00Z,30.2513,-88.0778,10.74,1111122 
DISL,ioos:station:DISL:DISL:1,2009-02-03T02:30:00Z,30.2513,-88.0778,10.53,1111122 
DISL,ioos:station:DISL:DISL:1,2009-02-03T03:00:00Z,30.2513,-88.0778,10.35,1111122 
DISL,ioos:station:DISL:DISL:1,2009-02-03T03:30:00Z,30.2513,-88.0778,10.15,1111122 
DISL,ioos:station:DISL:DISL:1,2009-02-03T04:00:00Z,30.2513,-88.0778,9.89,1111122 
DISL,ioos:station:DISL:DISL:1,2009-02-03T04:30:00Z,30.2513,-88.0778,9.66,1111122 
DISL,ioos:station:DISL:DISL:1,2009-02-03T05:00:00Z,30.2513,-88.0778,9.52,1111122 
DISL,ioos:station:DISL:DISL:1,2009-02-03T05:30:00Z,30.2513,-88.0778,9.27,1111122 
DISL,ioos:station:DISL:DISL:1,2009-02-03T06:00:00Z,30.2513,-88.0778,8.88,1111122 
DISL,ioos:station:DISL:DISL:1,2009-02-03T06:30:00Z,30.2513,-88.0778,8.39,1111122 
DISL,ioos:station:DISL:DISL:1,2009-02-03T07:00:00Z,30.2513,-88.0778,7.94,1111122 
DISL,ioos:station:DISL:DISL:1,2009-02-03T07:30:00Z,30.2513,-88.0778,7.64,1111122 
DISL,ioos:station:DISL:DISL:1,2009-02-03T08:00:00Z,30.2513,-88.0778,6.816,1111122 
DISL,ioos:station:DISL:DISL:1,2009-02-03T08:30:00Z,30.2513,-88.0778,6.451,1111122 
DISL,ioos:station:DISL:DISL:1,2009-02-03T09:00:00Z,30.2513,-88.0778,5.923,1111122 
DISL,ioos:station:DISL:DISL:1,2009-02-03T09:30:00Z,30.2513,-88.0778,6.287,1111122 
DISL,ioos:station:DISL:DISL:1,2009-02-03T10:00:00Z,30.2513,-88.0778,6.835,1111122 
DISL,ioos:station:DISL:DISL:1,2009-02-03T10:30:00Z,30.2513,-88.0778,7.03,1111122 
DISL,ioos:station:DISL:DISL:1,2009-02-03T11:00:00Z,30.2513,-88.0778,6.767,1111122 
DISL,ioos:station:DISL:DISL:1,2009-02-03T11:30:00Z,30.2513,-88.0778,6.537,1111122 
DISL,ioos:station:DISL:DISL:1,2009-02-03T12:00:00Z,30.2513,-88.0778,6.556,1111122 
DISL,ioos:station:DISL:DISL:1,2009-02-03T12:30:00Z,30.2513,-88.0778,6.258,1111122 
DISL,ioos:station:DISL:DISL:1,2009-02-03T13:00:00Z,30.2513,-88.0778,6.057,1111122 
DISL,ioos:station:DISL:DISL:1,2009-02-03T13:30:00Z,30.2513,-88.0778,5.884,1111122 
DISL,ioos:station:DISL:DISL:1,2009-02-03T14:00:00Z,30.2513,-88.0778,6.066,1111122 
DISL,ioos:station:DISL:DISL:1,2009-02-03T14:30:00Z,30.2513,-88.0778,6.46,1111122 
DISL,ioos:station:DISL:DISL:1,2009-02-03T15:00:00Z,30.2513,-88.0778,6.759,1111122 
DISL,ioos:station:DISL:DISL:1,2009-02-03T15:30:00Z,30.2513,-88.0778,6.836,1111122 
DISL,ioos:station:DISL:DISL:1,2009-02-03T16:00:00Z,30.2513,-88.0778,7.29,1111122 
DISL,ioos:station:DISL:DISL:1,2009-02-03T16:30:00Z,30.2513,-88.0778,7.98,1111122 
DISL,ioos:station:DISL:DISL:1,2009-02-03T17:00:00Z,30.2513,-88.0778,8.24,1111122 
DISL,ioos:station:DISL:DISL:1,2009-02-03T17:30:00Z,30.2513,-88.0778,9.05,1111122 
DISL,ioos:station:DISL:DISL:1,2009-02-03T18:00:00Z,30.2513,-88.0778,9.03,1111122 
DISL,ioos:station:DISL:DISL:1,2009-02-03T18:30:00Z,30.2513,-88.0778,9.41,1111122 
DISL,ioos:station:DISL:DISL:1,2009-02-03T19:00:00Z,30.2513,-88.0778,10.23,1111122 
DISL,ioos:station:DISL:DISL:1,2009-02-03T19:30:00Z,30.2513,-88.0778,10.35,1111122 
DISL,ioos:station:DISL:DISL:1,2009-02-03T20:00:00Z,30.2513,-88.0778,11.27,1111122 
DISL,ioos:station:DISL:DISL:1,2009-02-03T20:30:00Z,30.2513,-88.0778,11.91,1111122 
DISL,ioos:station:DISL:DISL:1,2009-02-03T21:00:00Z,30.2513,-88.0778,12.08,1111122 
DISL,ioos:station:DISL:DISL:1,2009-02-03T21:30:00Z,30.2513,-88.0778,12.17,1111122 
DISL,ioos:station:DISL:DISL:1,2009-02-03T22:00:00Z,30.2513,-88.0778,12.06,1111122 
DISL,ioos:station:DISL:DISL:1,2009-02-03T22:30:00Z,30.2513,-88.0778,12.05,1111122 
DISL,ioos:station:DISL:DISL:1,2009-02-03T23:00:00Z,30.2513,-88.0778,11.89,1111122 
DISL,ioos:station:DISL:DISL:1,2009-02-03T23:30:00Z,30.2513,-88.0778,12.1,1111122 
DISL,ioos:station:DISL:DISL:1,2009-02-04T00:00:00Z,30.2513,-88.0778,12.53,1111122 
DISL,ioos:station:DISL:DISL:1,2009-02-04T00:30:00Z,30.2513,-88.0778,12.89,1111122 
DISL,ioos:station:DISL:DISL:1,2009-02-04T01:00:00Z,30.2513,-88.0778,13.45,1111122 
DISL,ioos:station:DISL:DISL:1,2009-02-04T01:30:00Z,30.2513,-88.0778,13.62,1111122 
DISL,ioos:station:DISL:DISL:1,2009-02-04T02:00:00Z,30.2513,-88.0778,13.55,1111122 
DISL,ioos:station:DISL:DISL:1,2009-02-04T02:30:00Z,30.2513,-88.0778,13.26,1111122 
DISL,ioos:station:DISL:DISL:1,2009-02-04T03:00:00Z,30.2513,-88.0778,12.62,1111122 
DISL,ioos:station:DISL:DISL:1,2009-02-04T03:30:00Z,30.2513,-88.0778,11.72,1111122 
DISL,ioos:station:DISL:DISL:1,2009-02-04T04:00:00Z,30.2513,-88.0778,11.16,1111122 
DISL,ioos:station:DISL:DISL:1,2009-02-04T04:30:00Z,30.2513,-88.0778,10.71,1111122 
DISL,ioos:station:DISL:DISL:1,2009-02-04T05:00:00Z,30.2513,-88.0778,10.28,1111122 
DISL,ioos:station:DISL:DISL:1,2009-02-04T05:30:00Z,30.2513,-88.0778,9.69,1111122 
DISL,ioos:station:DISL:DISL:1,2009-02-04T06:00:00Z,30.2513,-88.0778,9.12,1111122 
DISL,ioos:station:DISL:DISL:1,2009-02-04T06:30:00Z,30.2513,-88.0778,8.46,1111122 
DISL,ioos:station:DISL:DISL:1,2009-02-04T07:00:00Z,30.2513,-88.0778,7.41,1111122 
DISL,ioos:station:DISL:DISL:1,2009-02-04T07:30:00Z,30.2513,-88.0778,6.913,1111122 
DISL,ioos:station:DISL:DISL:1,2009-02-04T08:00:00Z,30.2513,-88.0778,5.588,1111122 
DISL,ioos:station:DISL:DISL:1,2009-02-04T08:30:00Z,30.2513,-88.0778,4.661,1111122 
DISL,ioos:station:DISL:DISL:1,2009-02-04T09:00:00Z,30.2513,-88.0778,3.347,1111122 
DISL,ioos:station:DISL:DISL:1,2009-02-04T09:30:00Z,30.2513,-88.0778,2.8,1111122 
DISL,ioos:station:DISL:DISL:1,2009-02-04T10:00:00Z,30.2513,-88.0778,2.251,1111122 
DISL,ioos:station:DISL:DISL:1,2009-02-04T10:30:00Z,30.2513,-88.0778,1.107,1111122 
DISL,ioos:station:DISL:DISL:1,2009-02-04T11:00:00Z,30.2513,-88.0778,0.625,1111122 
DISL,ioos:station:DISL:DISL:1,2009-02-04T11:30:00Z,30.2513,-88.0778,0.978,1111122 
DISL,ioos:station:DISL:DISL:1,2009-02-04T12:00:00Z,30.2513,-88.0778,1.454,1111122 
DISL,ioos:station:DISL:DISL:1,2009-02-04T12:30:00Z,30.2513,-88.0778,0.801,1111122 
DISL,ioos:station:DISL:DISL:1,2009-02-04T13:00:00Z,30.2513,-88.0778,0.744,1111122 
DISL,ioos:station:DISL:DISL:1,2009-02-04T13:30:00Z,30.2513,-88.0778,0.328,1111122 
DISL,ioos:station:DISL:DISL:1,2009-02-04T14:00:00Z,30.2513,-88.0778,0.26,1111122 
DISL,ioos:station:DISL:DISL:1,2009-02-04T14:30:00Z,30.2513,-88.0778,0.363,1111122 
DISL,ioos:station:DISL:DISL:1,2009-02-04T15:00:00Z,30.2513,-88.0778,0.068,1111122 
DISL,ioos:station:DISL:DISL:1,2009-02-04T15:30:00Z,30.2513,-88.0778,0.05,1111122 
DISL,ioos:station:DISL:DISL:1,2009-02-04T16:00:00Z,30.2513,-88.0778,0.391,1111122 
DISL,ioos:station:DISL:DISL:1,2009-02-04T16:30:00Z,30.2513,-88.0778,0.72,1111122 
DISL,ioos:station:DISL:DISL:1,2009-02-04T17:00:00Z,30.2513,-88.0778,0.738,1111122 
DISL,ioos:station:DISL:DISL:1,2009-02-04T17:30:00Z,30.2513,-88.0778,1.231,1111122 
DISL,ioos:station:DISL:DISL:1,2009-02-04T18:00:00Z,30.2513,-88.0778,1.515,1111122 
DISL,ioos:station:DISL:DISL:1,2009-02-04T18:30:00Z,30.2513,-88.0778,2.31,1111122 
DISL,ioos:station:DISL:DISL:1,2009-02-04T19:00:00Z,30.2513,-88.0778,2.839,1111122 
DISL,ioos:station:DISL:DISL:1,2009-02-04T19:30:00Z,30.2513,-88.0778,3.124,1111122 
DISL,ioos:station:DISL:DISL:1,2009-02-04T20:00:00Z,30.2513,-88.0778,3.921,1111122 
DISL,ioos:station:DISL:DISL:1,2009-02-04T20:30:00Z,30.2513,-88.0778,4.547,1111122 
DISL,ioos:station:DISL:DISL:1,2009-02-04T21:00:00Z,30.2513,-88.0778,4.947,1111122 
DISL,ioos:station:DISL:DISL:1,2009-02-04T21:30:00Z,30.2513,-88.0778,5.99,1111122 
DISL,ioos:station:DISL:DISL:1,2009-02-04T22:00:00Z,30.2513,-88.0778,6.923,1111122 
DISL,ioos:station:DISL:DISL:1,2009-02-04T22:30:00Z,30.2513,-88.0778,7.14,1111122 
DISL,ioos:station:DISL:DISL:1,2009-02-04T23:00:00Z,30.2513,-88.0778,7.08,1111122 
DISL,ioos:station:DISL:DISL:1,2009-02-04T23:30:00Z,30.2513,-88.0778,6.99,1111122 
DISL,ioos:station:DISL:DISL:1,2009-02-05T00:00:00Z,30.2513,-88.0778,6.903,1111122 
DISL,ioos:station:DISL:DISL:1,2009-02-05T00:30:00Z,30.2513,-88.0778,6.826,1111122 
DISL,ioos:station:DISL:DISL:1,2009-02-05T01:00:00Z,30.2513,-88.0778,6.739,1111122 
DISL,ioos:station:DISL:DISL:1,2009-02-05T01:30:00Z,30.2513,-88.0778,6.566,1111122 
DISL,ioos:station:DISL:DISL:1,2009-02-05T02:00:00Z,30.2513,-88.0778,6.479,1111122 
DISL,ioos:station:DISL:DISL:1,2009-02-05T02:30:00Z,30.2513,-88.0778,6.422,1111122 
DISL,ioos:station:DISL:DISL:1,2009-02-05T03:00:00Z,30.2513,-88.0778,6.385,1111122 
DISL,ioos:station:DISL:DISL:1,2009-02-05T03:30:00Z,30.2513,-88.0778,6.192,1111122 
DISL,ioos:station:DISL:DISL:1,2009-02-05T04:00:00Z,30.2513,-88.0778,6.067,1111122 
DISL,ioos:station:DISL:DISL:1,2009-02-05T04:30:00Z,30.2513,-88.0778,5.597,1111122 
DISL,ioos:station:DISL:DISL:1,2009-02-05T05:00:00Z,30.2513,-88.0778,5.236,1111122 
DISL,ioos:station:DISL:DISL:1,2009-02-05T05:30:00Z,30.2513,-88.0778,4.722,1111122 
DISL,ioos:station:DISL:DISL:1,2009-02-05T06:00:00Z,30.2513,-88.0778,4.293,1111122 
DISL,ioos:station:DISL:DISL:1,2009-02-05T06:30:00Z,30.2513,-88.0778,4.16,1111122 
DISL,ioos:station:DISL:DISL:1,2009-02-05T07:00:00Z,30.2513,-88.0778,3.981,1111122 
DISL,ioos:station:DISL:DISL:1,2009-02-05T07:30:00Z,30.2513,-88.0778,3.751,1111122 
DISL,ioos:station:DISL:DISL:1,2009-02-05T08:00:00Z,30.2513,-88.0778,3.722,1111122 
DISL,ioos:station:DISL:DISL:1,2009-02-05T08:30:00Z,30.2513,-88.0778,3.646,1111122 
DISL,ioos:station:DISL:DISL:1,2009-02-05T09:00:00Z,30.2513,-88.0778,3.523,1111122 
DISL,ioos:station:DISL:DISL:1,2009-02-05T09:30:00Z,30.2513,-88.0778,3.286,1111122 
DISL,ioos:station:DISL:DISL:1,2009-02-05T10:00:00Z,30.2513,-88.0778,3.048,1111122 
DISL,ioos:station:DISL:DISL:1,2009-02-05T10:30:00Z,30.2513,-88.0778,2.991,1111122 
DISL,ioos:station:DISL:DISL:1,2009-02-05T11:00:00Z,30.2513,-88.0778,2.708,1111122 
DISL,ioos:station:DISL:DISL:1,2009-02-05T11:30:00Z,30.2513,-88.0778,2.785,1111122 
DISL,ioos:station:DISL:DISL:1,2009-02-05T12:00:00Z,30.2513,-88.0778,2.605,1111122 
DISL,ioos:station:DISL:DISL:1,2009-02-05T12:30:00Z,30.2513,-88.0778,2.549,1111122 
DISL,ioos:station:DISL:DISL:1,2009-02-05T13:00:00Z,30.2513,-88.0778,2.729,1111122 
DISL,ioos:station:DISL:DISL:1,2009-02-05T13:30:00Z,30.2513,-88.0778,2.707,1111122 
DISL,ioos:station:DISL:DISL:1,2009-02-05T14:00:00Z,30.2513,-88.0778,2.925,1111122 
DISL,ioos:station:DISL:DISL:1,2009-02-05T14:30:00Z,30.2513,-88.0778,2.801,1111122 
DISL,ioos:station:DISL:DISL:1,2009-02-05T15:00:00Z,30.2513,-88.0778,2.668,1111122 
DISL,ioos:station:DISL:DISL:1,2009-02-05T15:30:00Z,30.2513,-88.0778,2.934,1111122 
DISL,ioos:station:DISL:DISL:1,2009-02-05T16:00:00Z,30.2513,-88.0778,3.207,1111122 
DISL,ioos:station:DISL:DISL:1,2009-02-05T16:30:00Z,30.2513,-88.0778,3.595,1111122 
DISL,ioos:station:DISL:DISL:1,2009-02-05T17:00:00Z,30.2513,-88.0778,4.118,1111122 
DISL,ioos:station:DISL:DISL:1,2009-02-05T17:30:00Z,30.2513,-88.0778,4.479,1111122 
DISL,ioos:station:DISL:DISL:1,2009-02-05T18:00:00Z,30.2513,-88.0778,5.033,1111122 
DISL,ioos:station:DISL:DISL:1,2009-02-05T18:30:00Z,30.2513,-88.0778,5.56,1111122 
DISL,ioos:station:DISL:DISL:1,2009-02-05T19:00:00Z,30.2513,-88.0778,6.529,1111122 
DISL,ioos:station:DISL:DISL:1,2009-02-05T19:30:00Z,30.2513,-88.0778,6.722,1111122 
DISL,ioos:station:DISL:DISL:1,2009-02-05T20:00:00Z,30.2513,-88.0778,7.44,1111122 
DISL,ioos:station:DISL:DISL:1,2009-02-05T20:30:00Z,30.2513,-88.0778,7.53,1111122 
DISL,ioos:station:DISL:DISL:1,2009-02-05T21:00:00Z,30.2513,-88.0778,7.99,1111122 
DISL,ioos:station:DISL:DISL:1,2009-02-05T21:30:00Z,30.2513,-88.0778,8.21,1111122 
DISL,ioos:station:DISL:DISL:1,2009-02-05T22:00:00Z,30.2513,-88.0778,8.1,1111122 
DISL,ioos:station:DISL:DISL:1,2009-02-05T22:30:00Z,30.2513,-88.0778,8.18,1111122 
DISL,ioos:station:DISL:DISL:1,2009-02-05T23:00:00Z,30.2513,-88.0778,8.14,1111122 
DISL,ioos:station:DISL:DISL:1,2009-02-05T23:30:00Z,30.2513,-88.0778,7.93,1111122 
DISL,ioos:station:DISL:DISL:1,2009-02-06T00:00:00Z,30.2513,-88.0778,7.75,1111122 
DISL,ioos:station:DISL:DISL:1,2009-02-06T00:30:00Z,30.2513,-88.0778,7.91,1111122 
DISL,ioos:station:DISL:DISL:1,2009-02-06T01:00:00Z,30.2513,-88.0778,8.24,1111122 
DISL,ioos:station:DISL:DISL:1,2009-02-06T01:30:00Z,30.2513,-88.0778,8.48,1111122 
DISL,ioos:station:DISL:DISL:1,2009-02-06T02:00:00Z,30.2513,-88.0778,8.67,1111122 
DISL,ioos:station:DISL:DISL:1,2009-02-06T02:30:00Z,30.2513,-88.0778,8.83,1111122 
DISL,ioos:station:DISL:DISL:1,2009-02-06T03:00:00Z,30.2513,-88.0778,9.22,1111122 
DISL,ioos:station:DISL:DISL:1,2009-02-06T03:30:00Z,30.2513,-88.0778,9.34,1111122 
DISL,ioos:station:DISL:DISL:1,2009-02-06T04:00:00Z,30.2513,-88.0778,9.01,1111122 
DISL,ioos:station:DISL:DISL:1,2009-02-06T04:30:00Z,30.2513,-88.0778,9.17,1111122 
DISL,ioos:station:DISL:DISL:1,2009-02-06T05:00:00Z,30.2513,-88.0778,9.47,1111122 
DISL,ioos:station:DISL:DISL:1,2009-02-06T05:30:00Z,30.2513,-88.0778,9.62,1111122 
DISL,ioos:station:DISL:DISL:1,2009-02-06T06:00:00Z,30.2513,-88.0778,9.68,1111122 
DISL,ioos:station:DISL:DISL:1,2009-02-06T06:30:00Z,30.2513,-88.0778,10.1,1111122 
DISL,ioos:station:DISL:DISL:1,2009-02-06T07:00:00Z,30.2513,-88.0778,10.34,1111122 
DISL,ioos:station:DISL:DISL:1,2009-02-06T07:30:00Z,30.2513,-88.0778,10.44,1111122 
DISL,ioos:station:DISL:DISL:1,2009-02-06T08:00:00Z,30.2513,-88.0778,10.84,1111122 
DISL,ioos:station:DISL:DISL:1,2009-02-06T08:30:00Z,30.2513,-88.0778,11.09,1111122 
DISL,ioos:station:DISL:DISL:1,2009-02-06T09:00:00Z,30.2513,-88.0778,11.23,1111122 
DISL,ioos:station:DISL:DISL:1,2009-02-06T09:30:00Z,30.2513,-88.0778,11.21,1111122 
DISL,ioos:station:DISL:DISL:1,2009-02-06T10:00:00Z,30.2513,-88.0778,10.86,1111122 
DISL,ioos:station:DISL:DISL:1,2009-02-06T10:30:00Z,30.2513,-88.0778,10.88,1111122 
DISL,ioos:station:DISL:DISL:1,2009-02-06T11:00:00Z,30.2513,-88.0778,10.85,1111122 
DISL,ioos:station:DISL:DISL:1,2009-02-06T11:30:00Z,30.2513,-88.0778,10.87,1111122 
DISL,ioos:station:DISL:DISL:1,2009-02-06T12:00:00Z,30.2513,-88.0778,10.61,1111122 
DISL,ioos:station:DISL:DISL:1,2009-02-06T12:30:00Z,30.2513,-88.0778,10.82,1111122 
DISL,ioos:station:DISL:DISL:1,2009-02-06T13:00:00Z,30.2513,-88.0778,11.52,1111122 
DISL,ioos:station:DISL:DISL:1,2009-02-06T13:30:00Z,30.2513,-88.0778,11.35,1111122 
DISL,ioos:station:DISL:DISL:1,2009-02-06T14:00:00Z,30.2513,-88.0778,9.94,1111122 
DISL,ioos:station:DISL:DISL:1,2009-02-06T14:30:00Z,30.2513,-88.0778,9.93,1111122 
DISL,ioos:station:DISL:DISL:1,2009-02-06T15:00:00Z,30.2513,-88.0778,13.41,1111122 
DISL,ioos:station:DISL:DISL:1,2009-02-06T15:30:00Z,30.2513,-88.0778,14.0,1111122 
DISL,ioos:station:DISL:DISL:1,2009-02-06T16:00:00Z,30.2513,-88.0778,14.07,1111122 
DISL,ioos:station:DISL:DISL:1,2009-02-06T16:30:00Z,30.2513,-88.0778,14.45,1111122 
DISL,ioos:station:DISL:DISL:1,2009-02-06T17:00:00Z,30.2513,-88.0778,14.53,1111122 
DISL,ioos:station:DISL:DISL:1,2009-02-06T17:30:00Z,30.2513,-88.0778,14.7,1111122 
DISL,ioos:station:DISL:DISL:1,2009-02-06T18:00:00Z,30.2513,-88.0778,14.93,1111122 
DISL,ioos:station:DISL:DISL:1,2009-02-06T18:30:00Z,30.2513,-88.0778,15.48,1111122 
DISL,ioos:station:DISL:DISL:1,2009-02-06T19:00:00Z,30.2513,-88.0778,15.59,1111122 
DISL,ioos:station:DISL:DISL:1,2009-02-06T19:30:00Z,30.2513,-88.0778,15.37,1111122 
DISL,ioos:station:DISL:DISL:1,2009-02-06T20:00:00Z,30.2513,-88.0778,15.64,1111122 
DISL,ioos:station:DISL:DISL:1,2009-02-06T20:30:00Z,30.2513,-88.0778,15.77,1111122 
DISL,ioos:station:DISL:DISL:1,2009-02-06T21:00:00Z,30.2513,-88.0778,15.84,1111122 
DISL,ioos:station:DISL:DISL:1,2009-02-06T21:30:00Z,30.2513,-88.0778,15.44,1111122 
DISL,ioos:station:DISL:DISL:1,2009-02-06T22:00:00Z,30.2513,-88.0778,15.38,1111122 
DISL,ioos:station:DISL:DISL:1,2009-02-06T22:30:00Z,30.2513,-88.0778,15.22,1111122 
DISL,ioos:station:DISL:DISL:1,2009-02-06T23:00:00Z,30.2513,-88.0778,14.99,1111122 
DISL,ioos:station:DISL:DISL:1,2009-02-06T23:30:00Z,30.2513,-88.0778,14.59,1111122 
DISL,ioos:station:DISL:DISL:1,2009-02-07T00:00:00Z,30.2513,-88.0778,14.34,1111122 